星链-5238 (STARLINK-5238 )

导读

STARLINK-5238是美国太空探索技术公司星链星座的一员,于2022年10月28日发射升空。星链计划旨在搭建全球卫星互联网,为偏远地区、通信中断场景提供高速网络服务。该卫星入轨后,进一步拓展了星链星座的覆盖范围与服务能力,支撑星座在通信、导航等多领域的应用布局,也加剧了近地轨道的空间资源竞争。

基本信息
目录编号:
54188
目录名称:
STARLINK-5238
国际标识:
2022-141AH
轨道中心:
EARTH
卫星名称:
星链-5238
卫星全名:
星链-5238 (STARLINK-5238 )
卫星状态:
在轨 (已飞行1326 天)
发射日期:
2022-10-28 UTC
国别 :
美国 (US)
星等 :
--
轨道信息
数据来源 国际轨道数据
星历时间: 2026-06-14T22:03:29+0800
15小时前
查看轨道信息
半长轴: 6917.897km
偏心率: 0.0001196
轨道倾角: 53.162°
近地点辐角 85.743°
升交点赤经 279.214°
平近点角 274.369°
近地点: 538.932km
远地点: 540.588km
周期: 95.438分钟
每日圈数: 15.088348
详细信息
固有亮度:
5
最大亮度:
2.5
卫星平台:
Starlink v1.5
覆盖范围:
全球
运营商:
太空探索技术公司
运营商所在国:
美国
制造商(研发单位):
太空探索技术公司
制造商所在国:
美国
使用方式:
暂无
卫星简介
星链(Starlink)计划是由太空探索技术公司(SpaceX)提出的一个巨型低轨卫星互联网星座项目,计划在2019年至2024年间在太空搭建由约1.2万颗卫星组成的“星链”网络,其中1584颗将部署在地球上空550千米处的近地轨道,并从2020年开始工作。该卫星仍在工作。
2D轨道图
3D轨道图
轨道高度分析图
轨道倾角分析图
轨道综合分析图
查看轨道综合分析图